Location: *
(45.1961°N, 1.9694°E)
Time: 18:24:45
(UTC+00:00)

Cosmos 1269 Rocket - Pass Details

Date: 25 August 2019
Orbit: 772 x 779 km, 74.1° (Epoch: 22 September)

Event Time Altitude Azimuth Distance (km) Brightness Sun altitude
Rises 21:33:28 0° 341° (NNW) 3,264 8.4 -25.8°
Reaches altitude 10° 21:35:54 10° 346° (NNW) 2,333 7.3 -26.1°
Enters shadow 21:40:56 58° 55° (NE) 904 4.2 -26.6°
